sat.trackr.live / text

‹ back to catalog

CENTISPACE-2 S2

NORAD 68351 · 2026-060B

PAYLOAD ACTIVE UNKNOWN

§ Identity

Operator
Country
PRC
Launch date
2026-03-22
Launch site
YSLA
Launch vehicle
Mass (kg)
RCS (m²)

External: N2YO · Heavens-Above · Gunter

§ Orbital elements

Epoch: 2026-05-25T06:09:29.327616Z

Period
97.79 min
Inclination
54.9795°
Eccentricity
0.0009738
Mean motion
14.72493622 rev/d
Perigee alt
646.3 km
Apogee alt
660.0 km
Semi-major
7,031.3 km
B*
7.7082e-5
RAAN
129.7242°
Arg perigee
55.1745°
Mean anomaly
305.0168°
Rev number
938

§ Raw data

CENTISPACE-2 S21 68351U 26060B   26145.25658944  .00000289  00000+0  77082-4 0  99942 68351  54.9795 129.7242 0009738  55.1745 305.0168 14.72493622  9388

JSON: /api/v1/satellites/68351 · /tle

For live sub-satellite position, see the globe view (requires WebGL).

§ Visibility from observer

Set your observer location to see the next 7 days of passes ≥ 10°. The values pass through the URL so the page stays shareable.

No JS? Fill the form by hand. The geolocation button needs JavaScript.